Time,TemperatureF,DewpointF,PressureIn,WindDirection,WindDirectionDegrees,WindSpeedMPH,WindSpeedGustMPH,Humidity,HourlyPrecipIn,Conditions,Clouds,dailyrainin,SoftwareType,DateUTC
2013-05-18 00:08:00,75.6,67.5,30.01,SSW,202,0.0,-999.0,76,0.00,,,0.00,open2300 v1.10,2013-05-18 05:08:00,
2013-05-18 00:13:00,75.4,67.3,30.01,WSW,247,0.0,-999.0,76,0.00,,,0.00,open2300 v1.10,2013-05-18 05:13:00,
2013-05-18 00:18:00,75.4,67.3,30.02,South,180,0.0,-999.0,76,0.00,,,0.00,open2300 v1.10,2013-05-18 05:18:00,
2013-05-18 00:23:00,75.0,67.3,30.02,South,180,0.0,-999.0,77,0.00,,,0.00,open2300 v1.10,2013-05-18 05:23:00,
2013-05-18 00:28:00,75.0,67.3,30.02,SSW,202,0.0,-999.0,77,0.00,,,0.00,open2300 v1.10,2013-05-18 05:28:00,
2013-05-18 00:33:00,75.0,67.3,30.01,South,180,0.0,-999.0,77,0.00,,,0.00,open2300 v1.10,2013-05-18 05:33:00,
2013-05-18 00:39:00,74.8,67.2,30.01,ESE,112,0.0,-999.0,77,0.00,,,0.00,open2300 v1.10,2013-05-18 05:39:00,
2013-05-18 00:48:00,74.5,67.2,30.01,South,180,0.0,-999.0,78,0.00,,,0.00,open2300 v1.10,2013-05-18 05:48:00,
2013-05-18 00:54:00,74.5,67.2,30.01,SW,225,4.5,-999.0,78,0.00,,,0.00,open2300 v1.10,2013-05-18 05:54:00,
2013-05-18 00:59:00,74.3,67.1,30.01,South,180,0.0,-999.0,78,0.00,,,0.00,open2300 v1.10,2013-05-18 05:59:00,
2013-05-18 01:08:00,74.3,67.1,30.01,South,180,0.0,-999.0,78,0.00,,,0.00,open2300 v1.10,2013-05-18 06:08:00,
2013-05-18 01:13:00,74.1,67.2,30.00,South,180,0.0,-999.0,79,0.00,,,0.00,open2300 v1.10,2013-05-18 06:13:00,
2013-05-18 01:18:00,74.1,67.2,30.00,South,180,0.0,-999.0,79,0.00,,,0.00,open2300 v1.10,2013-05-18 06:18:00,
2013-05-18 01:23:00,73.9,67.1,30.00,SSW,202,0.0,-999.0,79,0.00,,,0.00,open2300 v1.10,2013-05-18 06:23:00,
2013-05-18 01:28:00,73.9,67.5,30.00,SSW,202,4.7,-999.0,80,0.00,,,0.00,open2300 v1.10,2013-05-18 06:28:00,
2013-05-18 01:33:00,73.9,67.5,30.00,WSW,247,0.0,-999.0,80,0.00,,,0.00,open2300 v1.10,2013-05-18 06:33:00,
2013-05-18 01:39:00,73.9,67.5,30.00,SW,225,0.0,-999.0,80,0.00,,,0.00,open2300 v1.10,2013-05-18 06:39:00,
2013-05-18 01:48:00,74.1,67.6,29.99,SW,225,6.9,-999.0,80,0.00,,,0.00,open2300 v1.10,2013-05-18 06:48:00,
2013-05-18 01:54:00,74.3,67.8,30.00,SSW,202,0.0,-999.0,80,0.00,,,0.00,open2300 v1.10,2013-05-18 06:54:00,
2013-05-18 01:59:00,74.3,67.8,30.00,SW,225,0.0,-999.0,80,0.00,,,0.00,open2300 v1.10,2013-05-18 06:59:00,
2013-05-18 02:04:00,74.5,68.0,30.00,SSW,202,4.2,-999.0,80,0.00,,,0.00,open2300 v1.10,2013-05-18 07:04:00,
2013-05-18 02:13:00,74.7,68.2,30.00,SW,225,0.0,-999.0,80,0.00,,,0.00,open2300 v1.10,2013-05-18 07:13:00,
2013-05-18 02:18:00,74.8,68.4,30.00,SW,225,5.1,-999.0,80,0.00,,,0.00,open2300 v1.10,2013-05-18 07:18:00,
2013-05-18 02:23:00,74.8,68.4,29.99,WNW,292,0.0,-999.0,80,0.00,,,0.00,open2300 v1.10,2013-05-18 07:23:00,
2013-05-18 02:28:00,74.8,68.0,29.99,WNW,292,0.0,-999.0,79,0.00,,,0.00,open2300 v1.10,2013-05-18 07:28:00,
2013-05-18 02:33:00,74.8,68.0,29.99,SW,225,3.8,-999.0,79,0.00,,,0.00,open2300 v1.10,2013-05-18 07:33:00,
2013-05-18 02:38:00,75.0,68.1,29.99,SSE,157,0.0,-999.0,79,0.00,,,0.00,open2300 v1.10,2013-05-18 07:38:00,
2013-05-18 02:43:00,75.0,68.1,29.99,WSW,247,4.0,-999.0,79,0.00,,,0.00,open2300 v1.10,2013-05-18 07:43:00,
2013-05-18 02:48:00,74.8,68.0,29.99,West,270,7.2,-999.0,79,0.00,,,0.00,open2300 v1.10,2013-05-18 07:48:00,
2013-05-18 02:54:00,75.0,68.1,30.00,WNW,292,5.6,-999.0,79,0.00,,,0.00,open2300 v1.10,2013-05-18 07:54:00,
2013-05-18 02:59:00,75.0,68.1,30.00,West,270,0.0,-999.0,79,0.00,,,0.00,open2300 v1.10,2013-05-18 07:59:00,
2013-05-18 03:08:00,75.4,68.5,30.00,West,270,0.2,-999.0,79,0.00,,,0.00,open2300 v1.10,2013-05-18 08:08:00,
2013-05-18 03:13:00,75.6,68.7,30.00,West,270,0.0,-999.0,79,0.00,,,0.00,open2300 v1.10,2013-05-18 08:13:00,
2013-05-18 03:18:00,75.6,68.2,30.00,West,270,5.8,-999.0,78,0.00,,,0.00,open2300 v1.10,2013-05-18 08:18:00,
2013-05-18 03:28:00,75.6,68.2,30.00,WNW,292,0.0,-999.0,78,0.00,,,0.00,open2300 v1.10,2013-05-18 08:28:00,
2013-05-18 03:33:00,75.4,68.1,30.00,SW,225,2.5,-999.0,78,0.00,,,0.00,open2300 v1.10,2013-05-18 08:33:00,
2013-05-18 03:38:00,75.4,68.1,30.00,NW,315,3.1,-999.0,78,0.00,,,0.00,open2300 v1.10,2013-05-18 08:38:00,
2013-05-18 03:43:00,75.2,68.3,30.00,WSW,247,0.0,-999.0,79,0.00,,,0.00,open2300 v1.10,2013-05-18 08:43:00,
2013-05-18 03:48:00,75.4,68.1,30.00,WNW,292,0.0,-999.0,78,0.00,,,0.00,open2300 v1.10,2013-05-18 08:48:00,
2013-05-18 03:54:00,75.2,67.9,29.99,SW,225,0.0,-999.0,78,0.00,,,0.00,open2300 v1.10,2013-05-18 08:54:00,
2013-05-18 03:59:00,75.2,67.9,29.99,WSW,247,1.3,-999.0,78,0.00,,,0.00,open2300 v1.10,2013-05-18 08:59:00,
2013-05-18 04:04:00,75.2,67.9,29.99,West,270,0.0,-999.0,78,0.00,,,0.00,open2300 v1.10,2013-05-18 09:04:00,
2013-05-18 04:13:00,75.2,67.9,30.00,SW,225,0.0,-999.0,78,0.00,,,0.00,open2300 v1.10,2013-05-18 09:13:00,
2013-05-18 04:18:00,75.2,67.9,30.01,WSW,247,3.1,-999.0,78,0.00,,,0.00,open2300 v1.10,2013-05-18 09:18:00,
2013-05-18 04:23:00,75.2,67.9,30.00,South,180,0.0,-999.0,78,0.00,,,0.00,open2300 v1.10,2013-05-18 09:23:00,
2013-05-18 04:28:00,75.2,67.9,30.00,WNW,292,0.0,-999.0,78,0.00,,,0.00,open2300 v1.10,2013-05-18 09:28:00,
2013-05-18 04:33:00,75.2,67.9,30.00,SW,225,0.0,-999.0,78,0.00,,,0.00,open2300 v1.10,2013-05-18 09:33:00,
2013-05-18 04:38:00,75.4,68.1,30.00,SSW,202,0.0,-999.0,78,0.00,,,0.00,open2300 v1.10,2013-05-18 09:38:00,
2013-05-18 04:43:00,75.0,67.8,30.00,South,180,0.0,-999.0,78,0.00,,,0.00,open2300 v1.10,2013-05-18 09:43:00,
2013-05-18 04:48:00,75.0,67.8,30.00,SW,225,0.0,-999.0,78,0.00,,,0.00,open2300 v1.10,2013-05-18 09:48:00,
2013-05-18 04:54:00,75.0,67.8,30.00,South,180,0.0,-999.0,78,0.00,,,0.00,open2300 v1.10,2013-05-18 09:54:00,
2013-05-18 04:59:00,74.8,67.6,30.00,SSW,202,0.0,-999.0,78,0.00,,,0.00,open2300 v1.10,2013-05-18 09:59:00,
2013-05-18 05:08:00,74.5,67.6,30.01,SW,225,0.7,-999.0,79,0.00,,,0.00,open2300 v1.10,2013-05-18 10:08:00,
2013-05-18 05:13:00,74.5,67.6,30.01,SW,225,0.0,-999.0,79,0.00,,,0.00,open2300 v1.10,2013-05-18 10:13:00,
2013-05-18 05:18:00,74.5,67.6,30.00,South,180,0.0,-999.0,79,0.00,,,0.00,open2300 v1.10,2013-05-18 10:18:00,
2013-05-18 05:23:00,74.3,67.8,30.01,SSW,202,0.0,-999.0,80,0.00,,,0.00,open2300 v1.10,2013-05-18 10:23:00,
2013-05-18 05:28:00,74.3,67.8,30.01,SW,225,0.0,-999.0,80,0.00,,,0.00,open2300 v1.10,2013-05-18 10:28:00,
2013-05-18 05:33:00,74.1,67.6,30.01,SW,225,0.0,-999.0,80,0.00,,,0.00,open2300 v1.10,2013-05-18 10:33:00,
2013-05-18 05:38:00,74.1,67.6,30.01,SW,225,0.0,-999.0,80,0.00,,,0.00,open2300 v1.10,2013-05-18 10:38:00,
2013-05-18 05:44:00,74.1,67.6,30.01,SSW,202,0.0,-999.0,80,0.00,,,0.00,open2300 v1.10,2013-05-18 10:44:00,
2013-05-18 05:54:00,73.9,67.5,30.01,SSW,202,0.0,-999.0,80,0.00,,,0.00,open2300 v1.10,2013-05-18 10:54:00,
2013-05-18 06:03:00,73.9,67.5,30.02,NNW,337,0.0,-999.0,80,0.00,,,0.00,open2300 v1.10,2013-05-18 11:03:00,
2013-05-18 06:08:00,74.1,67.6,30.02,NW,315,0.0,-999.0,80,0.00,,,0.00,open2300 v1.10,2013-05-18 11:08:00,
2013-05-18 06:13:00,73.9,67.5,30.02,WSW,247,0.0,-999.0,80,0.00,,,0.00,open2300 v1.10,2013-05-18 11:13:00,
2013-05-18 06:18:00,73.9,67.5,30.03,WSW,247,0.0,-999.0,80,0.00,,,0.00,open2300 v1.10,2013-05-18 11:18:00,
2013-05-18 06:23:00,73.9,67.5,30.03,SSW,202,0.0,-999.0,80,0.00,,,0.00,open2300 v1.10,2013-05-18 11:23:00,
2013-05-18 06:28:00,73.9,67.8,30.03,WSW,247,0.0,-999.0,81,0.00,,,0.00,open2300 v1.10,2013-05-18 11:28:00,
2013-05-18 06:33:00,73.9,67.8,30.03,WNW,292,0.0,-999.0,81,0.00,,,0.00,open2300 v1.10,2013-05-18 11:33:00,
2013-05-18 06:39:00,74.1,67.6,30.03,West,270,0.0,-999.0,80,0.00,,,0.00,open2300 v1.10,2013-05-18 11:39:00,
2013-05-18 06:49:00,74.5,68.3,30.04,WSW,247,0.2,-999.0,81,0.00,,,0.00,open2300 v1.10,2013-05-18 11:49:00,
2013-05-18 06:54:00,74.7,68.5,30.04,SW,225,0.0,-999.0,81,0.00,,,0.00,open2300 v1.10,2013-05-18 11:54:00,
2013-05-18 06:59:00,74.8,68.7,30.03,WSW,247,0.0,-999.0,81,0.00,,,0.00,open2300 v1.10,2013-05-18 11:59:00,
2013-05-18 07:08:00,75.0,68.9,30.04,SW,225,0.0,-999.0,81,0.00,,,0.00,open2300 v1.10,2013-05-18 12:08:00,
2013-05-18 07:13:00,75.0,68.5,30.04,West,270,0.0,-999.0,80,0.00,,,0.00,open2300 v1.10,2013-05-18 12:13:00,
2013-05-18 07:18:00,75.4,68.9,30.04,West,270,0.0,-999.0,80,0.00,,,0.00,open2300 v1.10,2013-05-18 12:18:00,
2013-05-18 07:23:00,75.7,68.8,30.05,WNW,292,0.0,-999.0,79,0.00,,,0.00,open2300 v1.10,2013-05-18 12:23:00,
2013-05-18 07:28:00,75.9,69.0,30.05,SW,225,0.0,-999.0,79,0.00,,,0.00,open2300 v1.10,2013-05-18 12:28:00,
2013-05-18 07:33:00,75.9,69.0,30.05,NW,315,0.0,-999.0,79,0.00,,,0.00,open2300 v1.10,2013-05-18 12:33:00,
2013-05-18 07:38:00,76.1,69.1,30.05,NW,315,0.0,-999.0,79,0.00,,,0.00,open2300 v1.10,2013-05-18 12:38:00,
2013-05-18 07:43:00,76.3,69.3,30.06,WSW,247,0.0,-999.0,79,0.00,,,0.00,open2300 v1.10,2013-05-18 12:43:00,
2013-05-18 07:48:00,76.5,69.5,30.06,WSW,247,0.0,-999.0,79,0.00,,,0.00,open2300 v1.10,2013-05-18 12:48:00,
2013-05-18 07:54:00,76.8,69.4,30.06,WNW,292,0.0,-999.0,78,0.00,,,0.00,open2300 v1.10,2013-05-18 12:54:00,
2013-05-18 07:59:00,77.0,69.6,30.06,WNW,292,0.0,-999.0,78,0.00,,,0.00,open2300 v1.10,2013-05-18 12:59:00,
2013-05-18 08:08:00,77.7,69.9,30.06,WNW,292,0.0,-999.0,77,0.00,,,0.00,open2300 v1.10,2013-05-18 13:08:00,
2013-05-18 08:13:00,78.1,70.2,30.06,West,270,0.0,-999.0,77,0.00,,,0.00,open2300 v1.10,2013-05-18 13:13:00,
2013-05-18 08:18:00,78.1,69.5,30.06,West,270,5.4,-999.0,75,0.00,,,0.00,open2300 v1.10,2013-05-18 13:18:00,
2013-05-18 08:23:00,78.4,69.8,30.07,West,270,0.0,-999.0,75,0.00,,,0.00,open2300 v1.10,2013-05-18 13:23:00,
2013-05-18 08:28:00,78.6,70.0,30.07,WNW,292,0.0,-999.0,75,0.00,,,0.00,open2300 v1.10,2013-05-18 13:28:00,
2013-05-18 08:33:00,78.6,70.0,30.06,West,270,10.7,-999.0,75,0.00,,,0.00,open2300 v1.10,2013-05-18 13:33:00,
2013-05-18 08:38:00,78.6,69.6,30.07,West,270,7.8,-999.0,74,0.00,,,0.00,open2300 v1.10,2013-05-18 13:38:00,
2013-05-18 08:48:00,79.2,69.7,30.07,WSW,247,0.0,-999.0,73,0.00,,,0.00,open2300 v1.10,2013-05-18 13:48:00,
2013-05-18 08:54:00,79.3,69.9,30.07,WNW,292,8.9,-999.0,73,0.00,,,0.00,open2300 v1.10,2013-05-18 13:54:00,
2013-05-18 08:59:00,79.3,69.9,30.07,WNW,292,3.6,-999.0,73,0.00,,,0.00,open2300 v1.10,2013-05-18 13:59:00,
2013-05-18 09:08:00,79.7,69.9,30.07,NNW,337,2.0,-999.0,72,0.00,,,0.00,open2300 v1.10,2013-05-18 14:08:00,
2013-05-18 09:13:00,79.7,69.9,30.07,West,270,1.6,-999.0,72,0.00,,,0.00,open2300 v1.10,2013-05-18 14:13:00,
2013-05-18 09:18:00,79.9,70.1,30.07,West,270,3.8,-999.0,72,0.00,,,0.00,open2300 v1.10,2013-05-18 14:18:00,
2013-05-18 09:23:00,80.4,70.2,30.07,NNW,337,9.2,-999.0,71,0.00,,,0.00,open2300 v1.10,2013-05-18 14:23:00,
2013-05-18 09:28:00,80.8,70.1,30.07,West,270,6.0,-999.0,70,0.00,,,0.00,open2300 v1.10,2013-05-18 14:28:00,
2013-05-18 09:33:00,81.0,69.8,30.07,WNW,292,12.3,-999.0,69,0.00,,,0.00,open2300 v1.10,2013-05-18 14:33:00,
2013-05-18 09:38:00,81.3,70.2,30.07,WNW,292,13.6,-999.0,69,0.00,,,0.00,open2300 v1.10,2013-05-18 14:38:00,
2013-05-18 09:48:00,81.7,70.1,30.07,SW,225,0.0,-999.0,68,0.00,,,0.00,open2300 v1.10,2013-05-18 14:48:00,
2013-05-18 09:54:00,82.0,70.4,30.07,WNW,292,6.9,-999.0,68,0.00,,,0.00,open2300 v1.10,2013-05-18 14:54:00,
2013-05-18 09:59:00,82.2,70.1,30.07,West,270,4.7,-999.0,67,0.00,,,0.00,open2300 v1.10,2013-05-18 14:59:00,
2013-05-18 10:08:00,82.4,69.8,30.07,WNW,292,11.0,-999.0,66,0.00,,,0.00,open2300 v1.10,2013-05-18 15:08:00,
2013-05-18 10:13:00,82.6,70.0,30.07,WSW,247,7.8,-999.0,66,0.00,,,0.00,open2300 v1.10,2013-05-18 15:13:00,
2013-05-18 10:18:00,82.9,69.9,30.06,WNW,292,0.7,-999.0,65,0.00,,,0.00,open2300 v1.10,2013-05-18 15:18:00,
2013-05-18 10:28:00,83.5,70.0,30.07,WNW,292,6.9,-999.0,64,0.00,,,0.00,open2300 v1.10,2013-05-18 15:28:00,
2013-05-18 10:33:00,83.5,70.0,30.06,West,270,6.5,-999.0,64,0.00,,,0.00,open2300 v1.10,2013-05-18 15:33:00,
2013-05-18 10:38:00,83.8,70.3,30.06,South,180,1.6,-999.0,64,0.00,,,0.00,open2300 v1.10,2013-05-18 15:38:00,
2013-05-18 10:48:00,84.2,70.2,30.07,NNW,337,0.0,-999.0,63,0.00,,,0.00,open2300 v1.10,2013-05-18 15:48:00,
2013-05-18 10:54:00,84.4,70.4,30.06,NW,315,5.1,-999.0,63,0.00,,,0.00,open2300 v1.10,2013-05-18 15:54:00,
2013-05-18 10:59:00,84.7,70.3,30.06,WNW,292,14.8,-999.0,62,0.00,,,0.00,open2300 v1.10,2013-05-18 15:59:00,
2013-05-18 11:08:00,85.1,70.6,30.06,NW,315,8.5,-999.0,62,0.00,,,0.00,open2300 v1.10,2013-05-18 16:08:00,
2013-05-18 11:13:00,85.3,70.3,30.07,WNW,292,13.2,-999.0,61,0.00,,,0.00,open2300 v1.10,2013-05-18 16:13:00,
2013-05-18 11:18:00,85.3,70.3,30.06,WNW,292,8.3,-999.0,61,0.00,,,0.00,open2300 v1.10,2013-05-18 16:18:00,
2013-05-18 11:23:00,85.3,70.3,30.06,West,270,1.3,-999.0,61,0.00,,,0.00,open2300 v1.10,2013-05-18 16:23:00,
2013-05-18 11:28:00,85.3,70.3,30.07,WSW,247,1.1,-999.0,61,0.00,,,0.00,open2300 v1.10,2013-05-18 16:28:00,
2013-05-18 11:33:00,85.5,70.5,30.07,WNW,292,6.7,-999.0,61,0.00,,,0.00,open2300 v1.10,2013-05-18 16:33:00,
2013-05-18 11:38:00,85.8,70.8,30.07,WNW,292,10.5,-999.0,61,0.00,,,0.00,open2300 v1.10,2013-05-18 16:38:00,
2013-05-18 11:43:00,86.0,70.5,30.07,WNW,292,0.0,-999.0,60,0.00,,,0.00,open2300 v1.10,2013-05-18 16:43:00,
2013-05-18 11:48:00,86.4,70.9,30.07,WSW,247,6.9,-999.0,60,0.00,,,0.00,open2300 v1.10,2013-05-18 16:48:00,
2013-05-18 11:53:00,86.7,71.2,30.07,South,180,6.9,-999.0,60,0.00,,,0.00,open2300 v1.10,2013-05-18 16:53:00,
2013-05-18 11:59:00,87.1,71.1,30.06,West,270,5.1,-999.0,59,0.00,,,0.00,open2300 v1.10,2013-05-18 16:59:00,
2013-05-18 12:08:00,87.4,71.4,30.06,WNW,292,10.1,-999.0,59,0.00,,,0.00,open2300 v1.10,2013-05-18 17:08:00,
2013-05-18 12:13:00,87.3,71.2,30.06,WSW,247,0.0,-999.0,59,0.00,,,0.00,open2300 v1.10,2013-05-18 17:13:00,
2013-05-18 12:18:00,87.3,71.2,30.06,West,270,0.0,-999.0,59,0.00,,,0.00,open2300 v1.10,2013-05-18 17:18:00,
2013-05-18 12:23:00,87.3,70.7,30.05,ESE,112,3.8,-999.0,58,0.00,,,0.00,open2300 v1.10,2013-05-18 17:23:00,
2013-05-18 12:28:00,87.4,71.4,30.05,WNW,292,9.4,-999.0,59,0.00,,,0.00,open2300 v1.10,2013-05-18 17:28:00,
2013-05-18 12:33:00,87.6,71.1,30.06,WNW,292,11.4,-999.0,58,0.00,,,0.00,open2300 v1.10,2013-05-18 17:33:00,
2013-05-18 12:38:00,87.6,71.1,30.05,SE,135,0.0,-999.0,58,0.00,,,0.00,open2300 v1.10,2013-05-18 17:38:00,
2013-05-18 12:48:00,88.7,72.1,30.05,East,90,0.0,-999.0,58,0.00,,,0.00,open2300 v1.10,2013-05-18 17:48:00,
2013-05-18 12:54:00,88.9,71.7,30.05,WNW,292,8.1,-999.0,57,0.00,,,0.00,open2300 v1.10,2013-05-18 17:54:00,
2013-05-18 12:59:00,89.2,72.0,30.05,West,270,3.6,-999.0,57,0.00,,,0.00,open2300 v1.10,2013-05-18 17:59:00,
2013-05-18 13:08:00,89.4,71.6,30.04,WNW,292,8.3,-999.0,56,0.00,,,0.00,open2300 v1.10,2013-05-18 18:08:00,
2013-05-18 13:13:00,89.4,71.6,30.04,WNW,292,4.2,-999.0,56,0.00,,,0.00,open2300 v1.10,2013-05-18 18:13:00,
2013-05-18 13:18:00,89.4,71.6,30.04,West,270,7.4,-999.0,56,0.00,,,0.00,open2300 v1.10,2013-05-18 18:18:00,
2013-05-18 13:23:00,89.4,71.6,30.04,SE,135,1.6,-999.0,56,0.00,,,0.00,open2300 v1.10,2013-05-18 18:23:00,
2013-05-18 13:28:00,89.6,71.8,30.04,SSW,202,6.7,-999.0,56,0.00,,,0.00,open2300 v1.10,2013-05-18 18:28:00,
2013-05-18 13:33:00,89.8,71.9,30.03,WNW,292,8.1,-999.0,56,0.00,,,0.00,open2300 v1.10,2013-05-18 18:33:00,
2013-05-18 13:38:00,90.0,72.1,30.03,SW,225,0.0,-999.0,56,0.00,,,0.00,open2300 v1.10,2013-05-18 18:38:00,
2013-05-18 13:43:00,90.1,72.3,30.03,NNW,337,4.2,-999.0,56,0.00,,,0.00,open2300 v1.10,2013-05-18 18:43:00,
2013-05-18 13:48:00,90.1,71.7,30.03,South,180,2.0,-999.0,55,0.00,,,0.00,open2300 v1.10,2013-05-18 18:48:00,
2013-05-18 13:54:00,90.1,71.7,30.03,SE,135,8.3,-999.0,55,0.00,,,0.00,open2300 v1.10,2013-05-18 18:54:00,
2013-05-18 13:59:00,90.1,71.7,30.03,SE,135,0.0,-999.0,55,0.00,,,0.00,open2300 v1.10,2013-05-18 18:59:00,
2013-05-18 14:08:00,90.5,72.1,30.02,WNW,292,8.5,-999.0,55,0.00,,,0.00,open2300 v1.10,2013-05-18 19:08:00,
2013-05-18 14:13:00,90.5,72.1,30.02,ESE,112,0.0,-999.0,55,0.00,,,0.00,open2300 v1.10,2013-05-18 19:13:00,
2013-05-18 14:18:00,90.7,71.7,30.02,NW,315,1.1,-999.0,54,0.00,,,0.00,open2300 v1.10,2013-05-18 19:18:00,
2013-05-18 14:23:00,91.0,72.0,30.02,SSW,202,3.8,-999.0,54,0.00,,,0.00,open2300 v1.10,2013-05-18 19:23:00,
2013-05-18 14:28:00,91.0,72.0,30.02,SW,225,2.9,-999.0,54,0.00,,,0.00,open2300 v1.10,2013-05-18 19:28:00,
2013-05-18 14:33:00,91.0,72.0,30.02,SSE,157,0.0,-999.0,54,0.00,,,0.00,open2300 v1.10,2013-05-18 19:33:00,
2013-05-18 14:38:00,91.2,72.2,30.02,ENE,67,0.0,-999.0,54,0.00,,,0.00,open2300 v1.10,2013-05-18 19:38:00,
2013-05-18 14:43:00,91.2,71.6,30.02,SW,225,6.7,-999.0,53,0.00,,,0.00,open2300 v1.10,2013-05-18 19:43:00,
2013-05-18 14:48:00,91.2,71.6,30.02,NNW,337,0.0,-999.0,53,0.00,,,0.00,open2300 v1.10,2013-05-18 19:48:00,
2013-05-18 14:53:00,91.0,71.5,30.02,West,270,5.1,-999.0,53,0.00,,,0.00,open2300 v1.10,2013-05-18 19:53:00,
2013-05-18 14:59:00,91.2,71.6,30.01,South,180,0.0,-999.0,53,0.00,,,0.00,open2300 v1.10,2013-05-18 19:59:00,
2013-05-18 15:08:00,91.6,71.9,30.01,SSW,202,6.3,-999.0,53,0.00,,,0.00,open2300 v1.10,2013-05-18 20:08:00,
2013-05-18 15:13:00,91.6,71.9,30.01,West,270,0.0,-999.0,53,0.00,,,0.00,open2300 v1.10,2013-05-18 20:13:00,
2013-05-18 15:18:00,91.6,71.9,30.01,NW,315,5.6,-999.0,53,0.00,,,0.00,open2300 v1.10,2013-05-18 20:18:00,
2013-05-18 15:23:00,91.4,71.8,30.01,ESE,112,6.7,-999.0,53,0.00,,,0.00,open2300 v1.10,2013-05-18 20:23:00,
2013-05-18 15:28:00,91.2,71.6,30.01,West,270,0.0,-999.0,53,0.00,,,0.00,open2300 v1.10,2013-05-18 20:28:00,
2013-05-18 15:33:00,91.2,71.6,30.01,SSW,202,0.0,-999.0,53,0.00,,,0.00,open2300 v1.10,2013-05-18 20:33:00,
2013-05-18 15:38:00,91.2,71.6,30.01,West,270,2.0,-999.0,53,0.00,,,0.00,open2300 v1.10,2013-05-18 20:38:00,
2013-05-18 15:44:00,91.2,71.6,30.01,SW,225,6.7,-999.0,53,0.00,,,0.00,open2300 v1.10,2013-05-18 20:44:00,
2013-05-18 15:54:00,91.6,71.9,30.00,WNW,292,0.0,-999.0,53,0.00,,,0.00,open2300 v1.10,2013-05-18 20:54:00,
2013-05-18 16:03:00,91.6,71.9,30.01,SW,225,0.0,-999.0,53,0.00,,,0.00,open2300 v1.10,2013-05-18 21:03:00,
2013-05-18 16:08:00,91.8,72.1,30.00,WNW,292,0.0,-999.0,53,0.00,,,0.00,open2300 v1.10,2013-05-18 21:08:00,
2013-05-18 16:13:00,91.8,72.1,30.00,South,180,4.2,-999.0,53,0.00,,,0.00,open2300 v1.10,2013-05-18 21:13:00,
2013-05-18 16:18:00,91.9,72.3,30.00,South,180,0.0,-999.0,53,0.00,,,0.00,open2300 v1.10,2013-05-18 21:18:00,
2013-05-18 16:23:00,92.3,72.6,30.00,WNW,292,11.4,-999.0,53,0.00,,,0.00,open2300 v1.10,2013-05-18 21:23:00,
2013-05-18 16:28:00,92.1,71.9,30.00,South,180,3.4,-999.0,52,0.00,,,0.00,open2300 v1.10,2013-05-18 21:28:00,
2013-05-18 16:33:00,91.9,71.7,30.00,West,270,0.0,-999.0,52,0.00,,,0.00,open2300 v1.10,2013-05-18 21:33:00,
2013-05-18 16:38:00,91.8,71.6,30.00,South,180,0.0,-999.0,52,0.00,,,0.00,open2300 v1.10,2013-05-18 21:38:00,
2013-05-18 16:43:00,91.8,72.1,30.00,SSW,202,0.0,-999.0,53,0.00,,,0.00,open2300 v1.10,2013-05-18 21:43:00,
2013-05-18 16:48:00,91.8,71.6,30.00,SW,225,6.9,-999.0,52,0.00,,,0.00,open2300 v1.10,2013-05-18 21:48:00,
2013-05-18 16:53:00,91.8,71.6,29.99,SSW,202,0.7,-999.0,52,0.00,,,0.00,open2300 v1.10,2013-05-18 21:53:00,
2013-05-18 16:59:00,91.6,71.4,29.99,WNW,292,0.0,-999.0,52,0.00,,,0.00,open2300 v1.10,2013-05-18 21:59:00,
2013-05-18 17:08:00,91.0,71.5,30.00,SSW,202,0.0,-999.0,53,0.00,,,0.00,open2300 v1.10,2013-05-18 22:08:00,
2013-05-18 17:13:00,91.0,71.5,29.99,WNW,292,0.0,-999.0,53,0.00,,,0.00,open2300 v1.10,2013-05-18 22:13:00,
2013-05-18 17:18:00,90.9,71.8,30.00,SSW,202,0.0,-999.0,54,0.00,,,0.00,open2300 v1.10,2013-05-18 22:18:00,
2013-05-18 17:23:00,90.7,71.7,30.00,WSW,247,8.1,-999.0,54,0.00,,,0.00,open2300 v1.10,2013-05-18 22:23:00,
2013-05-18 17:28:00,90.7,71.1,30.00,NNW,337,0.0,-999.0,53,0.00,,,0.00,open2300 v1.10,2013-05-18 22:28:00,
2013-05-18 17:33:00,90.5,71.0,30.00,SSE,157,0.0,-999.0,53,0.00,,,0.00,open2300 v1.10,2013-05-18 22:33:00,
2013-05-18 17:38:00,90.5,71.5,30.00,WNW,292,2.9,-999.0,54,0.00,,,0.00,open2300 v1.10,2013-05-18 22:38:00,
2013-05-18 17:48:00,90.3,71.3,29.99,WNW,292,0.0,-999.0,54,0.00,,,0.00,open2300 v1.10,2013-05-18 22:48:00,
2013-05-18 17:53:00,90.3,71.3,29.99,SE,135,4.7,-999.0,54,0.00,,,0.00,open2300 v1.10,2013-05-18 22:53:00,
2013-05-18 17:59:00,90.1,71.2,29.99,NW,315,0.0,-999.0,54,0.00,,,0.00,open2300 v1.10,2013-05-18 22:59:00,
2013-05-18 18:08:00,89.8,70.9,29.99,SSW,202,0.0,-999.0,54,0.00,,,0.00,open2300 v1.10,2013-05-18 23:08:00,
2013-05-18 18:13:00,89.8,71.4,29.99,West,270,0.0,-999.0,55,0.00,,,0.00,open2300 v1.10,2013-05-18 23:13:00,
2013-05-18 18:23:00,89.2,70.9,29.99,South,180,2.5,-999.0,55,0.00,,,0.00,open2300 v1.10,2013-05-18 23:23:00,
2013-05-18 18:33:00,88.9,71.1,29.99,NNE,22,0.0,-999.0,56,0.00,,,0.00,open2300 v1.10,2013-05-18 23:33:00,
2013-05-18 18:38:00,88.9,71.1,29.99,WNW,292,0.0,-999.0,56,0.00,,,0.00,open2300 v1.10,2013-05-18 23:38:00,
2013-05-18 18:44:00,88.7,71.0,29.99,WNW,292,6.7,-999.0,56,0.00,,,0.00,open2300 v1.10,2013-05-18 23:44:00,
2013-05-18 18:54:00,88.3,71.2,29.99,South,180,0.0,-999.0,57,0.00,,,0.00,open2300 v1.10,2013-05-18 23:54:00,
2013-05-18 18:59:00,88.3,71.2,29.99,West,270,0.0,-999.0,57,0.00,,,0.00,open2300 v1.10,2013-05-18 23:59:00,
2013-05-18 19:08:00,87.6,70.5,30.00,WSW,247,0.0,-999.0,57,0.00,,,0.00,open2300 v1.10,2013-05-19 00:08:00,
2013-05-18 19:13:00,87.4,70.3,30.00,SSW,202,0.0,-999.0,57,0.00,,,0.00,open2300 v1.10,2013-05-19 00:13:00,
2013-05-18 19:18:00,87.1,70.0,30.00,NW,315,0.0,-999.0,58,0.00,,,0.00,open2300 v1.10,2013-05-19 00:18:00,
2013-05-18 19:23:00,86.9,70.4,30.00,South,180,0.0,-999.0,58,0.00,,,0.00,open2300 v1.10,2013-05-19 00:23:00,
2013-05-18 19:28:00,86.5,70.0,30.01,WSW,247,0.0,-999.0,58,0.00,,,0.00,open2300 v1.10,2013-05-19 00:28:00,
2013-05-18 19:33:00,86.2,70.2,30.00,WNW,292,0.7,-999.0,59,0.00,,,0.00,open2300 v1.10,2013-05-19 00:33:00,
2013-05-18 19:38:00,86.0,70.0,30.01,SSW,202,0.0,-999.0,59,0.00,,,0.00,open2300 v1.10,2013-05-19 00:38:00,
2013-05-18 19:43:00,85.8,69.8,30.00,SSW,202,1.1,-999.0,59,0.00,,,0.00,open2300 v1.10,2013-05-19 00:43:00,
2013-05-18 19:48:00,85.3,69.9,30.00,SSW,202,0.0,-999.0,60,0.00,,,0.00,open2300 v1.10,2013-05-19 00:48:00,
2013-05-18 19:53:00,84.9,69.6,30.01,SSW,202,0.0,-999.0,60,0.00,,,0.00,open2300 v1.10,2013-05-19 00:53:00,
2013-05-18 19:59:00,84.7,69.4,30.01,South,180,0.0,-999.0,60,0.00,,,0.00,open2300 v1.10,2013-05-19 00:59:00,
2013-05-18 20:08:00,84.0,69.6,30.01,SSW,202,0.0,-999.0,62,0.00,,,0.00,open2300 v1.10,2013-05-19 01:08:00,
2013-05-18 20:13:00,83.8,69.4,30.01,SW,225,0.0,-999.0,62,0.00,,,0.00,open2300 v1.10,2013-05-19 01:13:00,
2013-05-18 20:18:00,83.5,69.5,30.00,WSW,247,0.0,-999.0,63,0.00,,,0.00,open2300 v1.10,2013-05-19 01:18:00,
2013-05-18 20:23:00,83.1,69.6,30.00,SSW,202,0.0,-999.0,64,0.00,,,0.00,open2300 v1.10,2013-05-19 01:23:00,
2013-05-18 20:28:00,82.9,69.4,30.00,SSW,202,0.0,-999.0,64,0.00,,,0.00,open2300 v1.10,2013-05-19 01:28:00,
2013-05-18 20:33:00,82.6,69.5,30.00,SSE,157,0.0,-999.0,65,0.00,,,0.00,open2300 v1.10,2013-05-19 01:33:00,
2013-05-18 20:38:00,82.2,69.2,30.00,SSE,157,0.0,-999.0,65,0.00,,,0.00,open2300 v1.10,2013-05-19 01:38:00,
2013-05-18 20:43:00,82.2,69.6,30.00,SSE,157,0.0,-999.0,66,0.00,,,0.00,open2300 v1.10,2013-05-19 01:43:00,
2013-05-18 20:48:00,81.7,69.2,30.00,SSE,157,0.0,-999.0,66,0.00,,,0.00,open2300 v1.10,2013-05-19 01:48:00,
2013-05-18 20:53:00,81.7,69.6,29.99,SSE,157,0.0,-999.0,67,0.00,,,0.00,open2300 v1.10,2013-05-19 01:53:00,
2013-05-18 20:59:00,81.3,69.3,29.99,SSE,157,0.0,-999.0,67,0.00,,,0.00,open2300 v1.10,2013-05-19 01:59:00,
2013-05-18 21:08:00,81.0,69.4,29.99,SW,225,0.0,-999.0,68,0.00,,,0.00,open2300 v1.10,2013-05-19 02:08:00,
2013-05-18 21:13:00,80.8,69.2,29.99,SSW,202,0.0,-999.0,68,0.00,,,0.00,open2300 v1.10,2013-05-19 02:13:00,
2013-05-18 21:18:00,80.4,68.9,29.99,South,180,0.0,-999.0,68,0.00,,,0.00,open2300 v1.10,2013-05-19 02:18:00,
2013-05-18 21:23:00,80.2,69.2,30.00,South,180,0.0,-999.0,69,0.00,,,0.00,open2300 v1.10,2013-05-19 02:23:00,
2013-05-18 21:28:00,80.2,69.2,30.00,South,180,0.0,-999.0,69,0.00,,,0.00,open2300 v1.10,2013-05-19 02:28:00,
2013-05-18 21:33:00,79.9,69.3,30.00,South,180,0.0,-999.0,70,0.00,,,0.00,open2300 v1.10,2013-05-19 02:33:00,
2013-05-18 21:44:00,79.5,69.3,30.00,South,180,0.0,-999.0,71,0.00,,,0.00,open2300 v1.10,2013-05-19 02:44:00,
2013-05-18 21:54:00,79.2,68.9,30.00,South,180,0.0,-999.0,71,0.00,,,0.00,open2300 v1.10,2013-05-19 02:54:00,
2013-05-18 21:59:00,79.0,68.8,30.00,SSW,202,7.2,-999.0,71,0.00,,,0.00,open2300 v1.10,2013-05-19 02:59:00,
2013-05-18 22:08:00,78.6,68.8,30.00,SE,135,0.0,-999.0,72,0.00,,,0.00,open2300 v1.10,2013-05-19 03:08:00,
2013-05-18 22:13:00,78.4,69.0,30.00,SSW,202,7.4,-999.0,73,0.00,,,0.00,open2300 v1.10,2013-05-19 03:13:00,
2013-05-18 22:18:00,78.4,69.0,30.00,SSE,157,2.7,-999.0,73,0.00,,,0.00,open2300 v1.10,2013-05-19 03:18:00,
2013-05-18 22:23:00,78.1,68.7,30.00,SSW,202,8.1,-999.0,73,0.00,,,0.00,open2300 v1.10,2013-05-19 03:23:00,
2013-05-18 22:28:00,78.1,68.7,30.01,WNW,292,0.0,-999.0,73,0.00,,,0.00,open2300 v1.10,2013-05-19 03:28:00,
2013-05-18 22:33:00,78.1,68.7,30.01,SSE,157,0.0,-999.0,73,0.00,,,0.00,open2300 v1.10,2013-05-19 03:33:00,
2013-05-18 22:38:00,78.1,68.7,30.00,South,180,0.0,-999.0,73,0.00,,,0.00,open2300 v1.10,2013-05-19 03:38:00,
2013-05-18 22:43:00,77.9,68.5,30.00,SSW,202,4.2,-999.0,73,0.00,,,0.00,open2300 v1.10,2013-05-19 03:43:00,
2013-05-18 22:48:00,77.7,68.7,30.00,SW,225,0.0,-999.0,74,0.00,,,0.00,open2300 v1.10,2013-05-19 03:48:00,
2013-05-18 22:53:00,77.7,68.7,30.00,West,270,5.4,-999.0,74,0.00,,,0.00,open2300 v1.10,2013-05-19 03:53:00,
2013-05-18 22:59:00,77.5,68.6,30.00,West,270,6.9,-999.0,74,0.00,,,0.00,open2300 v1.10,2013-05-19 03:59:00,
2013-05-18 23:03:00,77.5,68.6,30.00,SSE,157,0.0,-999.0,74,0.00,,,0.00,open2300 v1.10,2013-05-19 04:03:00,
2013-05-18 23:08:00,77.4,68.4,30.00,SSW,202,0.0,-999.0,74,0.00,,,0.00,open2300 v1.10,2013-05-19 04:08:00,
2013-05-18 23:13:00,77.4,68.4,29.99,SW,225,0.0,-999.0,74,0.00,,,0.00,open2300 v1.10,2013-05-19 04:13:00,
2013-05-18 23:18:00,77.2,68.2,29.99,South,180,0.0,-999.0,74,0.00,,,0.00,open2300 v1.10,2013-05-19 04:18:00,
2013-05-18 23:23:00,77.2,68.2,29.99,WSW,247,0.0,-999.0,74,0.00,,,0.00,open2300 v1.10,2013-05-19 04:23:00,
2013-05-18 23:28:00,76.8,67.9,29.99,South,180,1.1,-999.0,74,0.00,,,0.00,open2300 v1.10,2013-05-19 04:28:00,
2013-05-18 23:33:00,76.8,67.9,29.99,South,180,0.0,-999.0,74,0.00,,,0.00,open2300 v1.10,2013-05-19 04:33:00,
2013-05-18 23:38:00,76.8,67.9,29.99,SW,225,0.0,-999.0,74,0.00,,,0.00,open2300 v1.10,2013-05-19 04:38:00,
2013-05-18 23:43:00,76.6,67.7,29.99,South,180,0.7,-999.0,74,0.00,,,0.00,open2300 v1.10,2013-05-19 04:43:00,
2013-05-18 23:48:00,76.5,67.6,29.99,WSW,247,1.1,-999.0,74,0.00,,,0.00,open2300 v1.10,2013-05-19 04:48:00,
2013-05-18 23:54:00,76.3,67.4,29.98,South,180,0.0,-999.0,74,0.00,,,0.00,open2300 v1.10,2013-05-19 04:54:00,
2013-05-18 23:59:00,76.3,67.4,29.99,South,180,0.0,-999.0,74,0.00,,,0.00,open2300 v1.10,2013-05-19 04:59:00,